Simultaneous Nadir Overpasses (SNOs) Predictions

Prediction of SNOs between TERRA and METOP-C Satellite Orbit:

Table of predicted SNOs for the next 14.0 days since TLE Epoch: 1/25/2020
Index Date (TERRA) Time (TERRA) Lat,Lon (TERRA) SZA (TERRA ) Date (METOP-C) Time (METOP-C) Lat,Lon (METOP-C) SZA (METOP-C ) Distance(km) Time Diff (sec)
1 01/26/2020 01:07:03 -81.27, 29.92 77.57 01/26/2020 01:06:55 -81.28, 30.08 77.55 2.75 8
2 01/26/2020 01:56:29 81.29,-162.25 102.46 01/26/2020 01:57:34 81.28,-162.42 102.46 2.83 65
3 01/28/2020 20:41:22 -81.28, 96.44 78.29 01/28/2020 20:40:44 -81.28, 96.46 78.30 0.52 38
4 01/28/2020 21:30:48 81.29, -95.76 101.73 01/28/2020 21:31:22 81.28, -95.71 101.75 1.08 34
5 01/31/2020 16:15:41 -81.26, 162.57 79.10 01/31/2020 16:14:33 -81.27, 162.45 79.14 1.94 68
6 01/31/2020 17:05:07 81.27, -29.68 100.91 01/31/2020 17:05:11 81.27, -29.77 100.91 1.67 4
7 02/03/2020 12:39:26 81.27, 36.76 100.10 02/03/2020 12:38:59 81.28, 36.95 100.12 3.31 27
8 02/03/2020 13:28:52 -81.29,-155.25 79.86 02/03/2020 13:29:39 -81.29,-155.05 79.82 3.27 47
9 02/06/2020 08:13:45 81.27, 103.17 99.25 02/06/2020 08:12:48 81.27, 103.29 99.25 2.04 57




NCC Satellite Simultaneous Nadir Overpasses (SNOs) Prediction Service
